LEVXLEST

Guest
Details From LEVX - Vigo
To LEST - Santiago
Flight Number -
Tags Routegen Generated
Created
Modified
Stats Distance 41 nm / 76 km
Max Altitude 100 ft / 30 m
Waypoints 5
Social Downloads 10
Likes 0
Share VATSIM

Download

Looking for another format? Having issues loading an existing format? Contact us
Advertisement - Login to hide

Notes

Departing runway 1 LEVX. Arriving runway 16 LEST.

Route

LEVX +42.31_-008.60 +42.53_-008.48 +42.74_-008.36 LEST

ID Type Via Altitude (ft/m) Position (lat/lon) Dist (leg/tot) Name
O LEVX APT - 100 / 30 42.24250 / -8.62389 - / 0 nm
+42.31_-008.60 DME - 100 / 30 42.31344 / -8.60458 4 / 4 nm
+42.53_-008.48 DME - 100 / 30 42.52840 / -8.48400 13 / 18 nm
+42.74_-008.36 DME - 100 / 30 42.74335 / -8.36343 13 / 32 nm
O LEST APT - 0 / 0 42.88382 / -8.41095 8 / 40 nm

Altitude Profile

Advertisement - Login to hide

LEVX

Details ICAO LEVX (VGO)
Name Vigo
Region Spain
Timezone Europe/Madrid (UTC+1.0)
Stats Elevation 854 ft / 260 m (AMSL)
Location 42.231800° -8.626770°
Runways 1
Magnetic Variation 2.112° W

METAR

LEVX 210900Z 03005KT 340V090 CAVOK 06/01 Q1025 NOSIG

Decode

TAF

TAF TAF LEVX 210500Z 2106/2206 02008KT CAVOK TX12/2115Z TN01/2107Z TEMPO 2115/2120 04015G25KT

Decode

Departure Runways

ID Width Length Bearing (true/mag) Surface Threshold Overrun Markings Lighting
02 148 ft / 45 m 7,881 ft / 2,402 m 11.38° / 13.49° ASPHALT 0 ft / 0 m 0 ft / 0 m PREC-APP CENTERLINE EDGE THRESHOLD REIL-OMNI
20 148 ft / 45 m 7,881 ft / 2,402 m 191.38° / 193.50° ASPHALT 0 ft / 0 m 239 ft / 73 m PREC-APP CENTERLINE EDGE THRESHOLD CALVERT-ILS REIL-OMNI

LEST

Details ICAO LEST (SCQ)
Name Santiago
Region Spain
Timezone Europe/Madrid (UTC+1.0)
Stats Elevation 1,168 ft / 356 m (AMSL)
Location 42.897800° -8.415640°
Runways 1
Magnetic Variation 2.090° W

METAR

LEST 210900Z 05012G23KT 010V110 9999 SCT025 06/02 Q1028 NOSIG

Decode

TAF

TAF LEST 210500Z 2106/2206 05009KT CAVOK TX09/2115Z TN02/2107Z TEMPO 2107/2124 03015G25KT PROB40 TEMPO 2111/2120 04018G35KT PROB30 TEMPO 2200/2206 24015G25KT

Decode

Destination Runways

ID Width Length Bearing (true/mag) Surface Threshold Overrun Markings Lighting
17 148 ft / 45 m 10,509 ft / 3,203 m 166.20° / 168.29° ASPHALT 387 ft / 118 m 203 ft / 62 m PREC-APP CENTERLINE EDGE THRESHOLD ALSF-I
35 148 ft / 45 m 10,509 ft / 3,203 m 346.20° / 348.30° ASPHALT 0 ft / 0 m 0 ft / 0 m PREC-APP CENTERLINE EDGE THRESHOLD SALS

Approach Navaids

Runway Type Ident Frequency Range Bearing (true/mag) Slope Elevation
17 GS IGO 110.30 MHz 10 nm / 19 km 166.09° / 168.18 ° 3.00° 1,171 ft / 357 m (AMSL)
17 DME IGO 110.30 MHz 18 nm / 33 km - - 1,171 ft / 357 m (AMSL)
17 LOC-ILS IGO 110.30 MHz 18 nm / 33 km 166.06° / 168.15 ° - 1,171 ft / 357 m (AMSL)
35 LOC-ILS ISO 111.50 MHz 18 nm / 33 km 346.20° / 348.29 ° - 1,197 ft / 365 m (AMSL)
35 DME ISO 111.50 MHz 18 nm / 33 km - - 1,196 ft / 365 m (AMSL)
35 GS ISO 111.50 MHz 10 nm / 19 km 346.09° / 348.18 ° 3.00° 1,196 ft / 365 m (AMSL)

Popular Alternatives